Simultaneous Nadir Overpasses (SNOs) Predictions

Prediction of SNOs between METOP-A and NOAA-19 Satellite Orbit:

Table of predicted SNOs for the next 14.0 days since TLE Epoch: 5/15/2021
Index Date (METOP-A) Time (METOP-A) Lat,Lon (METOP-A) SZA (METOP-A ) Date (NOAA-19) Time (NOAA-19) Lat,Lon (NOAA-19) SZA (NOAA-19 ) Distance(km) Time Diff (sec)
1 05/22/2021 18:50:04 80.84, -93.19 60.41 05/22/2021 18:49:03 80.85, -93.20 60.40 0.47 61
2 05/22/2021 19:40:45 -80.85, 74.28 119.59 05/22/2021 19:39:58 -80.85, 74.21 119.60 1.39 47
3 05/22/2021 20:31:25 80.86,-118.34 60.41 05/22/2021 20:31:02 80.85,-118.20 60.41 2.52 23
4 05/22/2021 21:22:07 -80.84, 48.79 119.62 05/22/2021 21:21:58 -80.85, 48.84 119.61 1.06 9
5 05/22/2021 22:12:47 80.85,-143.82 60.39 05/22/2021 22:13:03 80.85,-143.93 60.39 1.96 16
6 05/22/2021 23:03:28 -80.86, 23.65 119.61 05/22/2021 23:03:58 -80.85, 23.48 119.62 3.21 30
7 05/22/2021 23:54:08 80.86,-168.97 60.39 05/22/2021 23:55:02 80.85,-168.93 60.39 1.05 54



Historial Predications of SNOs between METOP-A and NOAA-19
